WBANNO,USDM_WEEK,LONGITUDE,LATITUDE,SMVWC_5_CM_MEAN,SMANOM_5_CM_MEAN,SMPERC_5_CM_30COUNTS,SMPERC_5_CM_70COUNTS,SMVWC_10_CM_MEAN,SMANOM_10_CM_MEAN,SMPERC_10_CM_30COUNTS,SMPERC_10_CM_70COUNTS,SMVWC_20_CM_MEAN,SMANOM_20_CM_MEAN,SMPERC_20_CM_30COUNTS,SMPERC_20_CM_70COUNTS,SMVWC_50_CM_MEAN,SMANOM_50_CM_MEAN,SMPERC_50_CM_30COUNTS,SMPERC_50_CM_70COUNTS,SMVWC_100_CM_MEAN,SMANOM_100_CM_MEAN,SMPERC_100_CM_30COUNTS,SMPERC_100_CM_70COUNTS,SMVWC_TOP_CM_MEAN,SMANOM_TOP_CM_MEAN,SMPERC_TOP_CM_30COUNTS,SMPERC_TOP_CM_70COUNTS,SMVWC_COLUMN_CM_MEAN,SMANOM_COLUMN_CM_MEAN,SMPERC_COLUMN_CM_30COUNTS,SMPERC_COLUMN_CM_70COUNTS
04138,20110714,-112.54,41.62,,,,,,,,,,,,,,,,,,,,,,,,,,,,
04138,20110715,-112.54,41.62,,,,,,,,,,,,,,,,,,,,,,,,,,,,
04138,20110716,-112.54,41.62,,,,,,,,,,,,,,,,,,,,,,,,,,,,
04138,20110717,-112.54,41.62,,,,,,,,,,,,,,,,,,,,,,,,,,,,
04138,20110718,-112.54,41.62,,,,,,,,,,,,,,,,,,,,,,,,,,,,
04138,20110719,-112.54,41.62,,,,,,,,,,,,,,,,,,,,,,,,,,,,
04138,20110720,-112.54,41.62,0.082,0.24,0,0,0.135,-1.01,1,0,0.215,-0.53,0.961,0,0.302,0.49,0,0.104,0.303,-0.83,0.961,0,0.109,-0.11,0,0,0.207,-0.24,0.773,0
04138,20110721,-112.54,41.62,0.082,0.23,0,0,0.135,-0.98,1,0,0.215,-0.51,0.94,0,0.302,0.49,0,0.095,0.305,-0.8,0.935,0,0.109,-0.11,0,0,0.208,-0.23,0.72,0
04138,20110722,-112.54,41.62,0.081,0.21,0,0,0.135,-0.94,1,0,0.215,-0.48,0.893,0,0.302,0.49,0,0.083,0.304,-0.8,0.94,0,0.108,-0.11,0,0,0.207,-0.24,0.738,0
04138,20110723,-112.54,41.62,0.08,0.19,0,0,0.136,-0.9,1,0,0.216,-0.45,0.804,0,0.302,0.49,0,0.077,0.304,-0.8,0.94,0,0.108,-0.12,0,0,0.207,-0.24,0.75,0
04138,20110724,-112.54,41.62,0.078,0.16,0,0,0.136,-0.87,1,0,0.216,-0.41,0.72,0,0.302,0.5,0,0.095,0.304,-0.79,0.94,0,0.107,-0.13,0,0,0.207,-0.25,0.744,0
04138,20110725,-112.54,41.62,0.077,0.13,0,0,0.136,-0.85,1,0,0.217,-0.38,0.613,0,0.302,0.51,0,0.137,0.304,-0.79,0.946,0,0.106,-0.13,0,0,0.207,-0.25,0.78,0
04138,20110726,-112.54,41.62,0.076,0.1,0,0,0.135,-0.84,1,0,0.217,-0.35,0.518,0,0.302,0.53,0,0.185,0.304,-0.79,0.952,0,0.106,-0.15,0.042,0,0.207,-0.26,0.821,0
04138,20110727,-112.54,41.62,0.075,0.07,0,0,0.135,-0.84,1,0,0.217,-0.33,0.417,0,0.302,0.53,0,0.226,0.303,-0.79,0.94,0,0.105,-0.16,0.054,0,0.206,-0.27,0.863,0
04138,20110728,-112.54,41.62,0.074,0.04,0,0,0.135,-0.83,1,0,0.218,-0.3,0.31,0,0.302,0.54,0,0.268,0.302,-0.8,0.952,0,0.105,-0.17,0.095,0,0.206,-0.29,0.923,0
04138,20110729,-112.54,41.62,0.073,0.02,0,0,0.135,-0.82,1,0,0.218,-0.28,0.226,0,0.302,0.54,0,0.298,0.302,-0.79,0.946,0,0.104,-0.19,0.137,0,0.206,-0.3,0.935,0
04138,20110730,-112.54,41.62,0.073,0,0,0,0.135,-0.82,1,0,0.218,-0.26,0.196,0,0.301,0.55,0,0.321,0.302,-0.78,0.923,0,0.104,-0.2,0.167,0,0.206,-0.31,0.94,0
04138,20110731,-112.54,41.62,0.072,-0.02,0,0,0.134,-0.83,1,0,0.218,-0.24,0.161,0,0.301,0.55,0,0.31,0.304,-0.74,0.887,0,0.103,-0.21,0.262,0,0.206,-0.31,0.935,0
04138,20110801,-112.54,41.62,0.072,-0.03,0,0,0.134,-0.84,1,0,0.218,-0.24,0.179,0,0.301,0.55,0,0.345,0.304,-0.72,0.869,0,0.103,-0.23,0.339,0,0.206,-0.31,0.929,0
04138,20110802,-112.54,41.62,0.072,-0.03,0,0,0.133,-0.86,1,0,0.218,-0.23,0.214,0,0.301,0.56,0,0.357,0.305,-0.7,0.857,0,0.102,-0.24,0.375,0,0.206,-0.32,0.929,0
04138,20110803,-112.54,41.62,0.074,0.01,0,0.024,0.132,-0.87,1,0,0.218,-0.24,0.31,0,0.301,0.55,0,0.31,0.305,-0.7,0.863,0,0.103,-0.22,0.363,0,0.206,-0.32,0.911,0
04138,20110804,-112.54,41.62,0.077,0.1,0,0.167,0.132,-0.88,1,0,0.217,-0.24,0.381,0,0.3,0.55,0,0.286,0.306,-0.68,0.827,0,0.105,-0.17,0.321,0,0.206,-0.31,0.81,0
04138,20110805,-112.54,41.62,0.081,0.22,0,0.31,0.132,-0.88,1,0,0.217,-0.24,0.417,0,0.3,0.54,0,0.256,0.306,-0.68,0.821,0,0.107,-0.1,0.28,0,0.207,-0.29,0.702,0
04138,20110806,-112.54,41.62,0.086,0.36,0,0.452,0.132,-0.88,1,0,0.217,-0.23,0.393,0,0.3,0.54,0,0.226,0.306,-0.67,0.821,0,0.109,-0.02,0.25,0,0.208,-0.27,0.571,0
04138,20110807,-112.54,41.62,0.091,0.51,0,0.595,0.133,-0.86,1,0,0.217,-0.21,0.369,0,0.3,0.54,0,0.244,0.305,-0.69,0.851,0,0.112,0.07,0.155,0,0.209,-0.24,0.452,0
04138,20110808,-112.54,41.62,0.097,0.66,0,0.738,0.133,-0.84,1,0,0.217,-0.19,0.315,0,0.3,0.54,0,0.244,0.304,-0.7,0.857,0,0.115,0.17,0.077,0,0.21,-0.22,0.321,0
04138,20110809,-112.54,41.62,0.101,0.8,0,0.881,0.134,-0.8,1,0,0.218,-0.16,0.238,0,0.3,0.55,0,0.28,0.304,-0.7,0.857,0,0.118,0.26,0,0,0.211,-0.19,0.179,0
04138,20110810,-112.54,41.62,0.104,0.89,0,1,0.135,-0.77,1,0,0.218,-0.13,0.131,0,0.3,0.56,0,0.315,0.303,-0.72,0.869,0,0.12,0.31,0,0,0.212,-0.17,0.077,0
04138,20110811,-112.54,41.62,0.105,0.93,0,1,0.136,-0.74,1,0,0.219,-0.1,0.048,0,0.3,0.56,0,0.304,0.301,-0.76,0.917,0,0.121,0.34,0,0,0.212,-0.18,0.065,0
04138,20110812,-112.54,41.62,0.105,0.93,0,1,0.137,-0.71,1,0,0.219,-0.07,0,0,0.3,0.57,0,0.363,0.299,-0.78,0.923,0,0.121,0.34,0,0,0.212,-0.19,0.065,0
04138,20110813,-112.54,41.62,0.103,0.89,0,1,0.137,-0.69,1,0,0.219,-0.06,0,0,0.3,0.59,0,0.423,0.298,-0.81,0.946,0,0.12,0.31,0,0,0.211,-0.21,0.095,0
04138,20110814,-112.54,41.62,0.101,0.84,0,1,0.137,-0.68,1,0,0.219,-0.06,0,0,0.3,0.59,0,0.452,0.296,-0.83,0.946,0,0.119,0.28,0,0,0.211,-0.23,0.149,0
04138,20110815,-112.54,41.62,0.098,0.77,0,1,0.138,-0.67,1,0,0.22,-0.05,0,0,0.3,0.59,0,0.417,0.296,-0.83,0.946,0,0.118,0.24,0,0,0.21,-0.25,0.208,0
04138,20110816,-112.54,41.62,0.096,0.69,0,0.994,0.138,-0.66,1,0,0.22,-0.04,0,0,0.299,0.58,0,0.351,0.293,-0.88,0.946,0,0.117,0.19,0,0,0.209,-0.28,0.327,0
04138,20110817,-112.54,41.62,0.093,0.61,0,0.946,0.138,-0.66,1,0,0.22,-0.05,0,0,0.299,0.58,0,0.321,0.291,-0.92,0.946,0,0.115,0.13,0,0,0.208,-0.32,0.452,0
04138,20110818,-112.54,41.62,0.09,0.53,0,0.821,0.137,-0.67,1,0,0.22,-0.05,0,0,0.299,0.58,0,0.345,0.29,-0.92,0.935,0,0.114,0.08,0,0,0.207,-0.35,0.56,0
04138,20110819,-112.54,41.62,0.087,0.46,0,0.679,0.137,-0.68,1,0,0.22,-0.05,0,0,0.298,0.58,0,0.345,0.29,-0.92,0.935,0,0.112,0.02,0,0,0.206,-0.37,0.655,0
04138,20110820,-112.54,41.62,0.085,0.39,0,0.536,0.137,-0.69,1,0,0.22,-0.05,0,0,0.298,0.57,0,0.345,0.289,-0.93,0.923,0,0.111,-0.02,0,0,0.206,-0.39,0.75,0
04138,20110821,-112.54,41.62,0.083,0.34,0,0.393,0.136,-0.72,1,0,0.22,-0.05,0,0,0.298,0.57,0,0.369,0.289,-0.93,0.929,0,0.11,-0.06,0,0,0.205,-0.41,0.81,0
04138,20110822,-112.54,41.62,0.081,0.29,0,0.25,0.136,-0.74,1,0,0.22,-0.05,0,0,0.298,0.59,0,0.423,0.288,-0.94,0.929,0,0.108,-0.1,0,0,0.205,-0.43,0.863,0
04138,20110823,-112.54,41.62,0.079,0.24,0,0.113,0.136,-0.76,1,0,0.22,-0.06,0,0,0.298,0.6,0,0.488,0.29,-0.91,0.917,0,0.107,-0.14,0,0,0.204,-0.43,0.851,0
04138,20110824,-112.54,41.62,0.078,0.21,0,0.018,0.135,-0.78,1,0,0.22,-0.06,0,0,0.298,0.61,0,0.571,0.292,-0.87,0.899,0,0.107,-0.16,0,0,0.205,-0.42,0.827,0
04138,20110825,-112.54,41.62,0.077,0.19,0,0,0.135,-0.79,1,0,0.22,-0.05,0,0,0.298,0.62,0,0.655,0.293,-0.87,0.881,0,0.106,-0.18,0,0,0.205,-0.41,0.798,0
04138,20110826,-112.54,41.62,0.076,0.17,0,0,0.135,-0.79,1,0,0.22,-0.05,0,0,0.298,0.64,0,0.714,0.293,-0.86,0.875,0,0.106,-0.19,0,0,0.205,-0.4,0.762,0
04138,20110827,-112.54,41.62,0.075,0.15,0,0,0.135,-0.8,1,0,0.22,-0.04,0,0,0.298,0.66,0,0.786,0.294,-0.85,0.869,0,0.105,-0.2,0,0,0.205,-0.39,0.72,0
04138,20110828,-112.54,41.62,0.075,0.13,0,0,0.135,-0.79,1,0,0.221,-0.04,0,0,0.298,0.67,0,0.833,0.295,-0.86,0.857,0,0.105,-0.21,0,0,0.205,-0.38,0.69,0
04138,20110829,-112.54,41.62,0.074,0.11,0,0,0.135,-0.79,1,0,0.221,-0.04,0,0,0.298,0.68,0,0.881,0.296,-0.85,0.869,0,0.104,-0.23,0,0,0.205,-0.38,0.655,0
04138,20110830,-112.54,41.62,0.073,0.1,0,0,0.135,-0.79,1,0,0.22,-0.04,0,0,0.298,0.7,0,0.923,0.296,-0.85,0.881,0,0.104,-0.24,0,0,0.204,-0.37,0.643,0
04138,20110831,-112.54,41.62,0.073,0.1,0,0.006,0.134,-0.79,1,0,0.22,-0.04,0,0,0.298,0.7,0,0.935,0.297,-0.82,0.851,0,0.104,-0.25,0,0,0.205,-0.36,0.601,0
04138,20110901,-112.54,41.62,0.073,0.1,0,0.006,0.134,-0.79,1,0,0.22,-0.05,0,0,0.297,0.71,0,0.946,0.299,-0.78,0.845,0,0.104,-0.26,0,0,0.205,-0.34,0.554,0
04138,20110902,-112.54,41.62,0.073,0.09,0,0.006,0.133,-0.81,1,0,0.22,-0.06,0,0,0.297,0.71,0,0.952,0.3,-0.76,0.833,0,0.103,-0.27,0,0,0.205,-0.34,0.577,0
04138,20110903,-112.54,41.62,0.073,0.08,0,0.006,0.133,-0.82,1,0,0.219,-0.08,0.012,0,0.296,0.7,0,0.929,0.301,-0.74,0.833,0,0.103,-0.29,0.006,0,0.204,-0.35,0.619,0
04138,20110904,-112.54,41.62,0.072,0.06,0,0.006,0.132,-0.83,1,0,0.219,-0.1,0.024,0,0.296,0.69,0,0.875,0.303,-0.7,0.815,0,0.102,-0.3,0.012,0,0.204,-0.35,0.661,0
04138,20110905,-112.54,41.62,0.072,0.05,0,0.006,0.132,-0.84,1,0,0.218,-0.13,0.042,0,0.295,0.67,0,0.815,0.303,-0.71,0.815,0,0.102,-0.31,0.054,0,0.204,-0.37,0.726,0
04138,20110906,-112.54,41.62,0.071,0.02,0,0.006,0.132,-0.85,1,0,0.217,-0.15,0.083,0,0.294,0.66,0,0.804,0.302,-0.72,0.821,0,0.101,-0.33,0.161,0,0.203,-0.39,0.774,0
04138,20110907,-112.54,41.62,0.07,-0.01,0,0,0.131,-0.85,1,0,0.217,-0.16,0.113,0,0.294,0.66,0,0.81,0.301,-0.74,0.845,0,0.101,-0.35,0.286,0,0.203,-0.4,0.839,0
04138,20110908,-112.54,41.62,0.07,-0.04,0,0,0.131,-0.85,1,0,0.216,-0.18,0.125,0,0.293,0.66,0,0.821,0.299,-0.79,0.881,0,0.1,-0.37,0.429,0,0.202,-0.43,0.935,0
04138,20110909,-112.54,41.62,0.069,-0.07,0,0,0.131,-0.85,1,0,0.216,-0.2,0.131,0,0.293,0.66,0,0.833,0.297,-0.85,0.899,0,0.1,-0.39,0.571,0,0.201,-0.46,0.964,0
04138,20110910,-112.54,41.62,0.069,-0.09,0,0,0.131,-0.85,1,0,0.216,-0.2,0.131,0,0.292,0.67,0,0.857,0.294,-0.92,0.911,0,0.1,-0.41,0.708,0,0.2,-0.48,0.976,0
04138,20110911,-112.54,41.62,0.069,-0.11,0,0,0.131,-0.86,1,0,0.216,-0.21,0.185,0,0.292,0.69,0,0.917,0.291,-0.98,0.94,0,0.1,-0.43,0.845,0,0.2,-0.51,0.982,0
04138,20110912,-112.54,41.62,0.069,-0.14,0,0,0.131,-0.86,1,0,0.215,-0.22,0.208,0,0.292,0.7,0,0.976,0.289,-1.03,0.946,0,0.1,-0.45,0.946,0,0.199,-0.53,0.982,0
04138,20110913,-112.54,41.62,0.069,-0.16,0,0,0.131,-0.87,1,0,0.215,-0.22,0.208,0,0.291,0.7,0,0.994,0.288,-1.05,0.94,0,0.1,-0.47,0.982,0,0.199,-0.54,0.982,0
04138,20110914,-112.54,41.62,0.069,-0.2,0,0,0.131,-0.88,1,0,0.215,-0.23,0.22,0,0.291,0.7,0,1,0.287,-1.08,0.964,0,0.1,-0.5,1,0,0.198,-0.55,1,0
04138,20110915,-112.54,41.62,0.069,-0.23,0.036,0,0.13,-0.88,1,0,0.215,-0.24,0.25,0,0.291,0.71,0,1,0.286,-1.1,0.97,0,0.1,-0.52,1,0,0.198,-0.56,1,0
04138,20110916,-112.54,41.62,0.069,-0.26,0.137,0,0.13,-0.89,1,0,0.215,-0.25,0.31,0,0.291,0.72,0,1,0.287,-1.07,0.976,0,0.099,-0.54,1,0,0.198,-0.56,1,0
04138,20110917,-112.54,41.62,0.069,-0.3,0.28,0,0.13,-0.89,1,0,0.214,-0.27,0.399,0,0.29,0.72,0,1,0.288,-1.04,0.982,0,0.099,-0.56,1,0,0.198,-0.56,1,0
04138,20110918,-112.54,41.62,0.069,-0.33,0.375,0,0.129,-0.9,1,0,0.214,-0.29,0.464,0,0.29,0.71,0,1,0.289,-1,0.976,0,0.099,-0.57,1,0,0.198,-0.55,1,0
04138,20110919,-112.54,41.62,0.071,-0.31,0.375,0,0.129,-0.9,1,0,0.213,-0.33,0.565,0,0.289,0.7,0,0.994,0.29,-0.97,0.976,0,0.1,-0.55,0.94,0,0.198,-0.54,1,0
04138,20110920,-112.54,41.62,0.075,-0.27,0.375,0,0.129,-0.9,1,0,0.212,-0.36,0.667,0,0.288,0.68,0,0.964,0.291,-0.93,0.988,0,0.102,-0.5,0.798,0,0.199,-0.52,0.94,0
04138,20110921,-112.54,41.62,0.079,-0.21,0.375,0,0.13,-0.88,1,0,0.211,-0.39,0.768,0,0.288,0.66,0,0.935,0.291,-0.9,0.982,0,0.104,-0.44,0.655,0,0.2,-0.49,0.821,0
04138,20110922,-112.54,41.62,0.084,-0.14,0.339,0,0.13,-0.86,1,0,0.211,-0.42,0.869,0,0.287,0.64,0,0.923,0.291,-0.87,0.97,0,0.107,-0.38,0.512,0,0.201,-0.47,0.72,0
04138,20110923,-112.54,41.62,0.088,-0.08,0.238,0,0.131,-0.84,1,0,0.21,-0.44,0.946,0,0.286,0.62,0,0.923,0.291,-0.86,0.964,0,0.11,-0.33,0.369,0,0.201,-0.45,0.649,0
04138,20110924,-112.54,41.62,0.093,-0.01,0.095,0,0.132,-0.81,1,0,0.21,-0.46,0.982,0,0.285,0.62,0,0.923,0.291,-0.84,0.952,0,0.113,-0.27,0.226,0,0.202,-0.43,0.601,0
04138,20110925,-112.54,41.62,0.098,0.05,0,0,0.133,-0.77,1,0,0.21,-0.48,0.988,0,0.285,0.61,0,0.923,0.29,-0.84,0.946,0,0.116,-0.23,0.083,0,0.203,-0.42,0.571,0
04138,20110926,-112.54,41.62,0.101,0.07,0,0,0.134,-0.74,1,0,0.211,-0.48,0.988,0,0.285,0.62,0,0.929,0.29,-0.82,0.946,0,0.118,-0.22,0.006,0,0.204,-0.42,0.548,0
04138,20110927,-112.54,41.62,0.102,0.06,0,0,0.135,-0.71,1,0,0.211,-0.48,0.982,0,0.285,0.64,0,0.958,0.29,-0.81,0.94,0,0.119,-0.23,0.018,0,0.205,-0.43,0.601,0
04138,20110928,-112.54,41.62,0.103,0.04,0,0,0.136,-0.71,1,0,0.212,-0.49,0.976,0,0.285,0.66,0,0.988,0.288,-0.83,0.952,0,0.119,-0.26,0.113,0,0.205,-0.46,0.72,0
04138,20110929,-112.54,41.62,0.103,0.01,0,0,0.136,-0.72,1,0,0.212,-0.5,0.976,0,0.285,0.66,0,0.994,0.287,-0.82,0.952,0,0.12,-0.28,0.25,0,0.205,-0.49,0.815,0
04138,20110930,-112.54,41.62,0.103,-0.02,0,0,0.137,-0.73,1,0,0.212,-0.51,0.976,0,0.285,0.67,0,0.994,0.288,-0.8,0.935,0,0.12,-0.3,0.393,0,0.205,-0.51,0.887,0
04138,20111001,-112.54,41.62,0.103,-0.06,0,0,0.137,-0.75,1,0,0.212,-0.53,0.982,0,0.285,0.67,0,0.994,0.287,-0.78,0.94,0,0.12,-0.33,0.536,0,0.205,-0.53,0.935,0
04138,20111002,-112.54,41.62,0.102,-0.09,0.024,0,0.137,-0.76,1,0,0.212,-0.55,0.988,0,0.285,0.68,0,0.994,0.288,-0.76,0.946,0,0.12,-0.35,0.679,0,0.205,-0.55,0.964,0
04138,20111003,-112.54,41.62,0.101,-0.14,0.167,0,0.137,-0.77,1,0,0.213,-0.55,0.988,0,0.285,0.7,0,0.994,0.287,-0.76,0.935,0,0.119,-0.37,0.815,0,0.205,-0.57,0.988,0
04138,20111004,-112.54,41.62,0.1,-0.19,0.31,0,0.137,-0.8,1,0,0.213,-0.57,0.994,0,0.285,0.72,0,0.994,0.287,-0.73,0.917,0,0.119,-0.4,0.946,0,0.204,-0.59,0.994,0
04138,20111005,-112.54,41.62,0.099,-0.25,0.452,0,0.137,-0.8,1,0,0.213,-0.59,1,0,0.285,0.75,0,0.994,0.288,-0.71,0.905,0,0.118,-0.44,0.994,0,0.204,-0.61,0.994,0
04138,20111006,-112.54,41.62,0.106,-0.18,0.53,0.06,0.14,-0.73,0.94,0,0.212,-0.62,1,0,0.285,0.76,0,1,0.287,-0.7,0.905,0,0.123,-0.38,0.935,0.054,0.206,-0.57,0.94,0.03
04138,20111007,-112.54,41.62,0.127,0.1,0.53,0.202,0.151,-0.52,0.798,0.131,0.211,-0.66,1,0,0.284,0.76,0,1,0.286,-0.7,0.923,0,0.139,-0.15,0.792,0.196,0.212,-0.42,0.798,0.167
04138,20111008,-112.54,41.62,0.152,0.45,0.53,0.345,0.167,-0.21,0.655,0.274,0.21,-0.7,1,0,0.284,0.75,0,0.976,0.286,-0.69,0.905,0,0.16,0.15,0.649,0.339,0.22,-0.22,0.655,0.31
04138,20111009,-112.54,41.62,0.178,0.8,0.506,0.488,0.188,0.2,0.512,0.417,0.212,-0.67,0.899,0,0.283,0.74,0,0.958,0.287,-0.66,0.875,0,0.183,0.48,0.506,0.482,0.229,0.03,0.512,0.452
04138,20111010,-112.54,41.62,0.2,1.11,0.363,0.631,0.207,0.58,0.369,0.56,0.214,-0.6,0.756,0,0.282,0.71,0,0.94,0.288,-0.62,0.869,0,0.203,0.78,0.363,0.625,0.238,0.25,0.369,0.595
04138,20111011,-112.54,41.62,0.221,1.4,0.22,0.774,0.225,0.94,0.226,0.702,0.217,-0.53,0.613,0,0.28,0.68,0,0.911,0.287,-0.64,0.881,0,0.223,1.06,0.22,0.768,0.246,0.45,0.226,0.738
04138,20111012,-112.54,41.62,0.241,1.7,0.077,0.917,0.242,1.28,0.083,0.845,0.22,-0.43,0.47,0,0.279,0.64,0,0.881,0.287,-0.62,0.881,0,0.241,1.36,0.077,0.911,0.254,0.66,0.083,0.881
04138,20111013,-112.54,41.62,0.25,1.83,0,1,0.255,1.55,0,0.988,0.224,-0.31,0.327,0,0.278,0.62,0,0.863,0.288,-0.59,0.893,0,0.253,1.55,0,1,0.259,0.79,0,0.994
04138,20111014,-112.54,41.62,0.245,1.74,0,1,0.26,1.65,0,1,0.228,-0.16,0.185,0,0.278,0.61,0,0.833,0.288,-0.57,0.899,0,0.252,1.56,0,1,0.26,0.8,0,1
04138,20111015,-112.54,41.62,0.235,1.58,0,1,0.258,1.63,0,1,0.233,-0.02,0.042,0,0.277,0.6,0,0.821,0.289,-0.55,0.875,0,0.247,1.5,0,1,0.258,0.75,0,1
04138,20111016,-112.54,41.62,0.224,1.41,0,1,0.251,1.5,0,1,0.235,0.07,0,0.042,0.277,0.62,0,0.839,0.289,-0.53,0.857,0,0.238,1.39,0,1,0.255,0.67,0,1
04138,20111017,-112.54,41.62,0.215,1.28,0,1,0.245,1.38,0,1,0.237,0.12,0,0.083,0.277,0.63,0,0.851,0.289,-0.52,0.815,0,0.23,1.31,0,1,0.253,0.61,0,1
04138,20111018,-112.54,41.62,0.207,1.17,0,1,0.24,1.27,0,1,0.238,0.16,0,0.101,0.277,0.66,0,0.881,0.29,-0.48,0.774,0,0.223,1.24,0,1,0.25,0.55,0,1
04138,20111019,-112.54,41.62,0.2,1.08,0,1,0.234,1.17,0,1,0.238,0.17,0,0.101,0.277,0.69,0,0.911,0.29,-0.47,0.744,0,0.217,1.15,0,1,0.248,0.5,0,0.982
04138,20111020,-112.54,41.62,0.194,1,0,1,0.229,1.07,0,1,0.238,0.18,0,0.101,0.278,0.71,0,0.929,0.29,-0.45,0.708,0,0.212,1.08,0,1,0.246,0.46,0,0.958
04138,20111021,-112.54,41.62,0.189,0.95,0,1,0.225,0.99,0,1,0.238,0.18,0,0.101,0.278,0.73,0,0.958,0.29,-0.44,0.655,0,0.207,1.01,0,1,0.244,0.42,0,0.899
04138,20111022,-112.54,41.62,0.185,0.9,0,1,0.22,0.91,0,1,0.237,0.17,0,0.101,0.278,0.75,0,0.994,0.29,-0.44,0.649,0,0.203,0.96,0,1,0.242,0.39,0,0.851
04138,20111023,-112.54,41.62,0.182,0.87,0,1,0.217,0.84,0,1,0.237,0.16,0,0.06,0.278,0.76,0,0.994,0.29,-0.42,0.607,0,0.199,0.91,0,1,0.241,0.36,0,0.827
04138,20111024,-112.54,41.62,0.179,0.84,0,1,0.213,0.78,0,1,0.236,0.14,0,0.018,0.278,0.76,0,1,0.291,-0.39,0.577,0,0.196,0.87,0,1,0.239,0.34,0,0.792
04138,20111025,-112.54,41.62,0.176,0.83,0,1,0.21,0.73,0,1,0.235,0.12,0,0,0.278,0.76,0,1,0.291,-0.38,0.56,0,0.193,0.83,0,1,0.238,0.31,0,0.738
04138,20111026,-112.54,41.62,0.173,0.82,0,1,0.207,0.68,0,0.946,0.234,0.1,0,0,0.277,0.75,0,1,0.291,-0.36,0.548,0,0.19,0.79,0,1,0.237,0.29,0,0.643
04138,20111027,-112.54,41.62,0.17,0.8,0,1,0.204,0.62,0,0.804,0.233,0.08,0,0,0.277,0.75,0,1,0.292,-0.34,0.5,0,0.187,0.74,0,1,0.235,0.27,0,0.53
04138,20111028,-112.54,41.62,0.168,0.78,0,1,0.2,0.56,0,0.661,0.232,0.05,0,0,0.277,0.76,0,1,0.293,-0.32,0.482,0,0.184,0.7,0,1,0.234,0.24,0,0.452
04138,20111029,-112.54,41.62,0.165,0.75,0,1,0.197,0.51,0,0.518,0.23,0.02,0,0,0.277,0.75,0,1,0.293,-0.29,0.458,0,0.181,0.65,0,0.988,0.232,0.22,0,0.363
04138,20111030,-112.54,41.62,0.162,0.73,0,1,0.195,0.46,0,0.375,0.229,-0.02,0,0,0.277,0.74,0,1,0.293,-0.28,0.446,0,0.178,0.61,0,0.988,0.231,0.19,0,0.256
04138,20111031,-112.54,41.62,0.16,0.71,0,1,0.192,0.42,0,0.232,0.227,-0.04,0,0,0.277,0.73,0,1,0.293,-0.29,0.464,0,0.176,0.58,0,0.988,0.23,0.16,0,0.179
04138,20111101,-112.54,41.62,0.159,0.7,0,1,0.19,0.39,0,0.089,0.226,-0.06,0,0,0.277,0.72,0,1,0.292,-0.3,0.488,0,0.174,0.56,0,0.988,0.229,0.15,0,0.113
04138,20111102,-112.54,41.62,0.157,0.68,0,1,0.189,0.37,0,0,0.225,-0.08,0,0,0.276,0.71,0,1,0.293,-0.27,0.429,0,0.173,0.54,0,0.988,0.228,0.14,0,0.089
04138,20111103,-112.54,41.62,0.156,0.66,0,1,0.187,0.35,0,0,0.224,-0.09,0,0,0.276,0.69,0,1,0.293,-0.25,0.405,0,0.172,0.52,0,0.911,0.227,0.13,0,0.083
04138,20111104,-112.54,41.62,0.155,0.65,0,0.982,0.186,0.32,0,0,0.223,-0.11,0,0,0.276,0.66,0,0.988,0.293,-0.24,0.411,0,0.17,0.5,0,0.885,0.227,0.11,0,0.079
04138,20111105,-112.54,41.62,0.155,0.67,0,0.982,0.185,0.32,0,0,0.222,-0.11,0,0,0.275,0.65,0,0.982,0.292,-0.24,0.429,0,0.17,0.5,0,0.897,0.226,0.11,0,0.073
04138,20111106,-112.54,41.62,0.154,0.66,0,0.982,0.184,0.31,0,0,0.222,-0.12,0,0,0.275,0.64,0,0.976,0.292,-0.24,0.446,0,0.169,0.48,0,0.867,0.225,0.11,0,0.067
04138,20111107,-112.54,41.62,0.153,0.66,0,0.982,0.183,0.29,0,0,0.221,-0.12,0,0,0.274,0.62,0,0.929,0.292,-0.23,0.417,0,0.168,0.47,0,0.836,0.225,0.1,0,0.036
04138,20111108,-112.54,41.62,0.152,0.64,0,0.982,0.182,0.27,0,0,0.22,-0.13,0,0,0.274,0.59,0,0.81,0.293,-0.2,0.369,0,0.167,0.44,0,0.782,0.224,0.08,0,0.012
04138,20111109,-112.54,41.62,0.15,0.6,0,0.914,0.181,0.24,0,0,0.219,-0.15,0,0,0.273,0.57,0,0.762,0.292,-0.2,0.393,0,0.165,0.41,0,0.691,0.223,0.06,0,0.007
04138,20111110,-112.54,41.62,0.149,0.57,0,0.846,0.18,0.22,0,0,0.218,-0.16,0,0,0.273,0.56,0,0.708,0.292,-0.19,0.399,0,0.165,0.39,0,0.691,0.223,0.05,0,0.007
04138,20111111,-112.54,41.62,,,,,0.179,0.2,0,0,0.217,-0.16,0,0,0.272,0.54,0,0.613,0.293,-0.17,0.333,0,,,,,,,,
04138,20111112,-112.54,41.62,,,,,0.177,0.16,0,0,0.216,-0.17,0,0,0.272,0.53,0,0.506,0.293,-0.14,0.256,0,,,,,,,,
04138,20111113,-112.54,41.62,,,,,0.176,0.13,0,0,0.216,-0.18,0,0,0.271,0.51,0,0.393,0.294,-0.11,0.202,0,,,,,,,,
04138,20111114,-112.54,41.62,,,,,0.175,0.11,0,0,0.215,-0.18,0,0,0.271,0.5,0,0.298,0.294,-0.1,0.167,0,,,,,,,,
04138,20111115,-112.54,41.62,,,,,0.175,0.09,0,0,0.215,-0.17,0,0,0.27,0.49,0,0.28,0.294,-0.09,0.137,0,,,,,,,,
04138,20111116,-112.54,41.62,,,,,0.175,0.09,0,0,0.214,-0.16,0,0,0.27,0.49,0,0.208,0.294,-0.07,0.083,0,,,,,,,,
04138,20111117,-112.54,41.62,,,,,0.175,0.09,0,0,0.214,-0.14,0,0,0.27,0.48,0,0.161,0.295,-0.05,0.048,0.006,,,,,,,,
04138,20111118,-112.54,41.62,,,,,0.175,0.09,0,0,0.214,-0.12,0,0,0.269,0.49,0,0.161,0.295,-0.04,0.042,0.006,,,,,,,,
04138,20111119,-112.54,41.62,,,,,0.175,0.1,0,0,0.214,-0.1,0,0,0.269,0.49,0,0.196,0.295,-0.03,0.036,0.006,,,,,,,,
04138,20111120,-112.54,41.62,0.147,0.48,0,0.761,0.176,0.11,0,0,0.215,-0.09,0,0,0.269,0.5,0,0.268,0.294,-0.04,0.036,0.012,0.162,0.31,0,0.471,0.22,0.06,0,0.117
04138,20111121,-112.54,41.62,0.149,0.51,0,0.778,0.176,0.11,0,0,0.215,-0.07,0,0,0.269,0.52,0,0.387,0.294,-0.03,0.036,0.018,0.162,0.32,0,0.541,0.22,0.07,0,0.185
04138,20111122,-112.54,41.62,0.148,0.49,0,0.711,0.176,0.1,0,0,0.215,-0.06,0,0,0.27,0.53,0,0.512,0.294,-0.02,0.018,0.018,0.162,0.3,0,0.496,0.221,0.07,0,0.196
04138,20111123,-112.54,41.62,0.149,0.48,0,0.689,0.176,0.09,0,0,0.215,-0.06,0,0,0.27,0.55,0,0.625,0.294,-0.01,0.018,0.036,0.162,0.29,0,0.526,0.221,0.06,0,0.114
04138,20111124,-112.54,41.62,0.152,0.54,0,0.78,0.176,0.1,0,0,0.215,-0.05,0,0,0.27,0.56,0,0.714,0.294,-0.01,0.012,0.03,0.164,0.33,0,0.633,0.221,0.08,0,0.143
04138,20111125,-112.54,41.62,0.155,0.61,0,0.863,0.177,0.12,0,0.018,0.215,-0.05,0,0,0.27,0.57,0,0.815,0.293,-0.01,0.012,0.03,0.166,0.38,0,0.752,0.222,0.13,0,0.208
04138,20111126,-112.54,41.62,0.157,0.65,0,0.884,0.178,0.13,0,0.089,0.215,-0.04,0,0,0.27,0.58,0,0.881,0.293,-0.01,0.018,0.03,0.167,0.41,0,0.836,0.223,0.14,0,0.333
04138,20111127,-112.54,41.62,,,,,0.178,0.15,0,0.095,0.215,-0.04,0,0,0.27,0.58,0,0.929,0.293,-0.01,0.03,0.03,,,,,,,,
04138,20111128,-112.54,41.62,,,,,0.178,0.13,0,0.105,0.215,-0.04,0,0,0.27,0.59,0,0.929,0.293,-0.01,0.024,0.036,,,,,,,,
04138,20111129,-112.54,41.62,,,,,0.177,0.11,0,0.113,0.213,-0.09,0.119,0,0.27,0.57,0,0.875,0.293,0,0.024,0.06,,,,,,,,
04138,20111130,-112.54,41.62,,,,,0.176,0.08,0,0.118,0.211,-0.14,0.262,0,0.27,0.57,0,0.821,0.293,0.01,0.024,0.077,,,,,,,,
04138,20111201,-112.54,41.62,,,,,0.174,0.03,0,0.123,0.208,-0.2,0.405,0,0.27,0.56,0,0.774,0.293,0.03,0.024,0.113,,,,,,,,
04138,20111202,-112.54,41.62,,,,,,,,,0.206,-0.26,0.548,0,0.269,0.55,0,0.679,0.294,0.06,0.018,0.155,,,,,,,,
04138,20111203,-112.54,41.62,,,,,,,,,0.203,-0.33,0.69,0,0.269,0.53,0,0.554,0.294,0.08,0.012,0.196,,,,,,,,
04138,20111204,-112.54,41.62,,,,,,,,,0.199,-0.44,0.833,0,0.269,0.51,0,0.423,0.294,0.1,0,0.208,,,,,,,,
04138,20111205,-112.54,41.62,,,,,,,,,0.196,-0.51,0.972,0,0.268,0.49,0,0.304,0.294,0.1,0,0.22,,,,,,,,
04138,20111206,-112.54,41.62,,,,,,,,,,,,,0.268,0.47,0,0.226,0.294,0.11,0,0.226,,,,,,,,
04138,20111207,-112.54,41.62,,,,,,,,,,,,,0.268,0.45,0,0.143,0.294,0.11,0,0.202,,,,,,,,
04138,20111208,-112.54,41.62,,,,,,,,,,,,,0.267,0.42,0,0.06,0.294,0.11,0,0.208,,,,,,,,
04138,20111209,-112.54,41.62,,,,,,,,,,,,,0.267,0.4,0,0.018,0.294,0.11,0,0.19,,,,,,,,
04138,20111210,-112.54,41.62,,,,,,,,,,,,,0.267,0.39,0,0.012,0.294,0.11,0,0.173,,,,,,,,
04138,20111211,-112.54,41.62,,,,,,,,,,,,,0.267,0.4,0,0.077,0.294,0.13,0,0.22,,,,,,,,
04138,20111212,-112.54,41.62,,,,,,,,,,,,,0.268,0.43,0,0.22,0.295,0.15,0,0.244,,,,,,,,
04138,20111213,-112.54,41.62,,,,,,,,,,,,,0.27,0.46,0,0.363,0.294,0.14,0,0.214,,,,,,,,
04138,20111214,-112.54,41.62,,,,,,,,,,,,,0.271,0.5,0,0.506,0.295,0.16,0,0.232,,,,,,,,
04138,20111215,-112.54,41.62,,,,,,,,,,,,,0.272,0.54,0,0.649,0.295,0.17,0,0.256,,,,,,,,
04138,20111216,-112.54,41.62,,,,,,,,,,,,,0.273,0.57,0,0.792,0.295,0.17,0,0.262,,,,,,,,
04138,20111217,-112.54,41.62,,,,,,,,,,,,,0.274,0.59,0,0.923,0.295,0.18,0,0.262,,,,,,,,
04138,20111218,-112.54,41.62,,,,,,,,,,,,,0.275,0.59,0,0.917,0.295,0.17,0,0.244,,,,,,,,
04138,20111219,-112.54,41.62,,,,,,,,,,,,,0.274,0.57,0,0.833,0.294,0.15,0,0.208,,,,,,,,
04138,20111220,-112.54,41.62,,,,,,,,,,,,,0.276,0.61,0,0.756,0.294,0.17,0,0.25,,,,,,,,
04138,20111221,-112.54,41.62,,,,,,,,,,,,,0.281,0.71,0,0.739,0.294,0.17,0,0.256,,,,,,,,
04138,20111222,-112.54,41.62,,,,,,,,,,,,,,,,,0.293,0.17,0,0.232,,,,,,,,
04138,20111223,-112.54,41.62,,,,,,,,,,,,,,,,,0.293,0.17,0,0.232,,,,,,,,
04138,20111224,-112.54,41.62,,,,,,,,,,,,,,,,,0.293,0.18,0,0.256,,,,,,,,
04138,20111225,-112.54,41.62,,,,,,,,,,,,,,,,,0.292,0.19,0,0.25,,,,,,,,
04138,20111226,-112.54,41.62,,,,,,,,,,,,,,,,,0.293,0.23,0,0.345,,,,,,,,
04138,20111227,-112.54,41.62,,,,,,,,,,,,,,,,,0.293,0.26,0,0.405,,,,,,,,
04138,20111228,-112.54,41.62,,,,,,,,,,,,,,,,,0.293,0.28,0,0.435,,,,,,,,
04138,20111229,-112.54,41.62,,,,,,,,,,,,,,,,,0.293,0.3,0,0.476,,,,,,,,
04138,20111230,-112.54,41.62,,,,,,,,,,,,,,,,,0.293,0.32,0,0.524,,,,,,,,
04138,20111231,-112.54,41.62,,,,,,,,,,,,,,,,,0.293,0.34,0,0.542,,,,,,,,
04138,20120101,-112.54,41.62,,,,,,,,,,,,,,,,,0.293,0.36,0,0.536,,,,,,,,
04138,20120102,-112.54,41.62,,,,,,,,,,,,,,,,,0.293,0.35,0,0.506,,,,,,,,